Hlavní strana
METAR-TAF:

METAR-TAF

Letiště :

Plantation Airpark

Sylvania, Georgie, Spojené státy americké

zeměpisná šířka: 32-38-43N, zeměpisná délka: 081-35-47W, výška: 57 m

Aktuální stav počasí

Zpráva byla vytvořena před 15 minutami, v 02:55 UTC
Východojihovýchodní vítr 3 kt
Teplota 23°C
Vlhkost vzduchu 94%
Tlak 1018 hPa
Viditelnost: 16.1 km
Polojasno ve výšce 11000 ft

METAR: KJYL 300255Z AUTO 12003KT 10SM SCT110 23/22 A3006 RMK AO2 LTG DSNT N AND NE T02300217

Čas: 23:10 (03:10 UTC)


TAF: chybějící

Stav a předpovědi počasí z více než 4 000 letišť (zprávy METAR a TAF).

Červené a žluté tečky na mapě představují dostupné meteorologické stanice.

Když kurzor umístíte na tečku, zobrazí se název stanice.

Pak kliknutím zobrazíte stav a předpověď počasí.

Chcete-li změnit mapu, kliknutím na zelené tlačítko se znaménkem +mapu přiblížíte, kliknutím na zelené tlačítko se znaménkem – mapu oddálíte a kliknutím na zelené šipky přejdete na sousední mapy.


METAR-TAF: